Regional Weather Roundup
Issued by NWS

Home | Current Version | Previous Version | Text Only | Print | Product List | Glossary On
Versions: 1 2 3 4 5 6 7 8 9 10 11 12 13 14 15 16 17 18 19 20 21 22 23 24 25 26 27 28 29 30 31 32 33 34 35 36 37 38 39 40 41 42 43 44 45 46 47 48 49 50
000
ASUS43 KDTX 221110
RWRMI
MICHIGAN HOURLY REGIONAL WEATHER ROUNDUP
NATIONAL WEATHER SERVICE DETROIT/PONTIAC MI
700 AM EDT FRI MAY 22 2015

NOTE: "FAIR" INDICATES FEW OR NO CLOUDS BELOW 12,000 FEET WITH NO
SIGNIFICANT WEATHER AND/OR OBSTRUCTION TO VISIBILITY.

MIZ047>049-052>055-059>063-066>070-074>076-081>083-221200-
SOUTHEAST LOWER MICHIGAN

CITY           SKY/WX    TMP DP  RH WIND       PRES   REMARKS
ADRIAN         PTCLDY    50  41  71 N5        30.11R
ALMA           CLEAR     38  32  79 NW5       30.13R WCI  34
ANN ARBOR      PTCLDY    47  33  58 NW5       30.10R
BAD AXE        CLEAR     41  34  74 N9        30.09R
CARO           CLEAR     43  32  65 NW5       30.10R
DETROIT CITY   PTCLDY    50  32  50 NW3       30.10R
DETROIT        MOCLDY    51  35  54 NW7       30.10R
FLINT          CLEAR     45  32  60 W7        30.11R
GROSSE ILE     MOCLDY    52  37  58 NW9       30.08R
HILLSDALE      MOCLDY    48  41  75 N3        30.11R
HOWELL         PTCLDY    45  31  58 W5        30.10R

CITY           SKY/WX    TMP DP  RH WIND       PRES   REMARKS
JACKSON        PTCLDY    47  30  51 N5        30.11R
LAMBERTVILLE   CLOUDY    50  41  71 NW5       30.10R
LANSING        PTCLDY    44  31  60 NW5       30.13R
LAPEER         FAIR      43  30  58 NW5       30.09R
MASON          PTCLDY    42  31  65 NW3       30.12R
MONROE         MOCLDY    52  43  71 NW5       30.08R
MT. CLEMENS    CLEAR     46  38  73 W3        30.06R
PONTIAC        PTCLDY    45  30  55 W6        30.09R
PORT HOPE        N/A     44  38  79 N9G18     30.08R
PORT HURON     CLEAR     39  37  93 CALM      30.08R
TRI CITIES     CLEAR     44  28  53 N9        30.12R
MIDLAND        FAIR      36  30  78 NW3       30.13R
TROY           PTCLDY    49  32  51 NW6       30.11R
SAGINAW HB     CLEAR     43  28  56 NW8       30.11R
$$
MIZ043>046-050>051-056>058-064>065-071>073-077>080-221200-
SOUTHWEST LOWER MICHIGAN

CITY           SKY/WX    TMP DP  RH WIND       PRES   REMARKS
BATTLE CREEK   PTCLDY    48  25  40 CALM      30.13R
BENTON HARBOR  CLEAR     42  42 100 CALM      30.13R FOG
BIG RAPIDS     CLEAR     36  29  76 CALM      30.13R
COLDWATER      CLEAR     44  39  83 N3        30.11R
FREMONT        FAIR      38  32  78 CALM      30.14R
HOLLAND        CLEAR     46  33  60 E3        30.14R
GRAND RAPIDS   PTCLDY    47  28  47 NE3       30.13R
IONIA          FAIR      46  27  48 N3        30.12R
KALAMAZOO      PTCLDY    49  33  54 CALM      30.13R
LUDINGTON      CLEAR     33  30  89 CALM      30.17R
MARSHALL       CLEAR     44  26  48 CALM      30.11R
MOUNT PLEASANT CLEAR     41  26  56 NW3       30.13R
MUSKEGON       CLEAR     44  32  62 NE3       30.15R
SOUTH HAVEN    CLEAR     44  39  82 E3        30.12R
$$
MIZ016>042-221200-
NORTHERN LOWER MICHIGAN

CITY           SKY/WX    TMP DP  RH WIND       PRES   REMARKS
ALPENA         CLEAR     34  30  85 CALM      30.12R
BEAVER ISLAND  CLEAR     29  29  99 CALM      30.16R
BELLAIRE       CLEAR     30  28  94 CALM      30.16R
CADILLAC       FAIR      31  26  80 NW3       30.12R
CHARLEVOIX     CLEAR     37  34  89 CALM      30.18R
FRANKFORT      CLEAR     32  26  77 CALM      30.16R
GAYLORD        CLEAR     31  28  89 CALM      30.12R
GRAYLING       CLEAR     30  25  80 CALM      30.14R
HARBOR SPRINGS CLEAR     34  29  81 CALM      30.14R
HOUGHTON LAKE  CLEAR     38  27  64 N3        30.13R
MANISTEE       CLEAR     28  25  86 CALM      30.17R
OSCODA         CLEAR     38  30  72 CALM      30.11R
PELLSTON       CLEAR     29  26  89 CALM      30.15R
ROGERS CITY    CLEAR     38  33  84 W3        30.14R
TRAVERSE CITY  CLEAR     33  29  85 CALM      30.15R
$$
MIZ007>008-015-221200-
EASTERN UPPER MICHIGAN

CITY           SKY/WX    TMP DP  RH WIND       PRES   REMARKS
KINROSS        CLEAR     36  25  64 N5        30.15R WCI  32
MACKINAC ISLAN CLEAR     37  28  70 N8        30.14R WCI  31
NEWBERRY       CLEAR     33  28  80 N5        30.16R WCI  28
S. S. MARIE    CLEAR     35  20  54 CALM      30.14R
MUNISING         N/A     30  26  85 S6        30.18R WCI  24
$$
MIZ004>006-011>014-085-221200-
CENTRAL UPPER MICHIGAN

CITY           SKY/WX    TMP DP  RH WIND       PRES   REMARKS
MANISTIQUE     CLEAR     32  27  82 N5        30.17R WCI  27
ESCANABA       CLEAR     34  21  60 N5        30.18R WCI  30
MENOMINEE      CLEAR     34  27  75 CALM      30.18R
SAWYER-GWINN   CLEAR     28  23  80 N3        30.17R
$$
MIZ001>003-009>011-084-221200-
WESTERN UPPER MICHIGAN

CITY           SKY/WX    TMP DP  RH WIND       PRES   REMARKS
IRON MOUNTAIN  CLEAR     30  24  78 CALM      30.16R
HOUGHTON       CLEAR     35  26  69 E6        30.17R WCI  30
COPPER HARBOR    N/A     35  29  78 CALM      30.19R
IRONWOOD       CLEAR     30  30 100 CALM      30.15R
$$

ABBREVIATIONS USED IN REMARKS
   TC - TEMPERATURE IN CELSIUS
  WCI - WIND CHILL INDEX
   HX - HEAT INDEX
  VSB - VISIBILITY




USA.gov is the U.S. government's official web portal to all federal, state and local government web resources and services.